Saint Bonnet de Bellac- Haute Vienne - France
Donnes mto: mardi, 24/01/2012
Date Horaire Temp. E. Hum. E. P.atmo. Pluie Vent Direction Direction Ensoleilleme Solaire P. de rose Temp au vent Rafales
24/01/2012 00:00 5,3 C 89 % 1023,1 hPa 0,0 mm 0,0 km/h (0 Bft) O 270 0 min 0 W/m 3,6 C 5,3 C 0,0 km/h (0 Bft)
24/01/2012 00:10 5,3 C 89 % 1023,2 hPa 0,0 mm 0,0 km/h (0 Bft) O-SO 247 0 min 0 W/m 3,6 C 5,3 C 0,0 km/h (0 Bft)
24/01/2012 00:20 5,4 C 89 % 1023,2 hPa 0,0 mm 0,0 km/h (0 Bft) O 270 0 min 0 W/m 3,7 C 5,4 C 0,0 km/h (0 Bft)
24/01/2012 00:30 5,4 C 89 % 1023,3 hPa 0,0 mm 0,0 km/h (0 Bft) O 270 0 min 0 W/m 3,7 C 5,4 C 0,0 km/h (0 Bft)
24/01/2012 00:40 5,4 C 89 % 1023,4 hPa 0,0 mm 0,0 km/h (0 Bft) O-NO 292 0 min 0 W/m 3,7 C 5,4 C 0,0 km/h (0 Bft)
24/01/2012 00:50 5,4 C 89 % 1023,5 hPa 0,0 mm 0,0 km/h (0 Bft) O 270 0 min 0 W/m 3,7 C 5,4 C 0,0 km/h (0 Bft)
24/01/2012 01:00 5,4 C 89 % 1023,6 hPa 0,0 mm 0,0 km/h (0 Bft) O-SO 247 0 min 0 W/m 3,7 C 5,4 C 0,0 km/h (0 Bft)
24/01/2012 01:10 5,5 C 90 % 1023,6 hPa 0,0 mm 0,7 km/h (0 Bft) O-NO 292 0 min 0 W/m 4,0 C 5,5 C 4,3 km/h (1 Bft)
24/01/2012 01:20 5,6 C 90 % 1023,7 hPa 0,0 mm 1,1 km/h (1 Bft) O 270 0 min 0 W/m 4,1 C 5,6 C 1,1 km/h (1 Bft)
24/01/2012 01:30 5,6 C 89 % 1023,8 hPa 0,0 mm 0,0 km/h (0 Bft) O-NO 292 0 min 0 W/m 3,9 C 5,6 C 3,6 km/h (1 Bft)
24/01/2012 01:40 5,6 C 89 % 1023,8 hPa 0,0 mm 1,4 km/h (1 Bft) O 270 0 min 0 W/m 3,9 C 5,6 C 1,4 km/h (1 Bft)
24/01/2012 01:50 5,6 C 89 % 1023,8 hPa 0,0 mm 0,0 km/h (0 Bft) O-NO 292 0 min 0 W/m 3,9 C 5,6 C 0,0 km/h (0 Bft)
24/01/2012 02:02 5,5 C 90 % 1023,9 hPa 0,0 mm 0,0 km/h (0 Bft) O 270 0 min 0 W/m 4,0 C 5,5 C 0,0 km/h (0 Bft)
24/01/2012 02:10 5,4 C 90 % 1023,9 hPa 0,0 mm 0,0 km/h (0 Bft) O-NO 292 0 min 0 W/m 3,9 C 5,4 C 0,0 km/h (0 Bft)
24/01/2012 02:20 5,3 C 90 % 1023,8 hPa 0,0 mm 0,0 km/h (0 Bft) SO 225 0 min 0 W/m 3,8 C 5,3 C 0,0 km/h (0 Bft)
24/01/2012 02:30 5,1 C 90 % 1023,5 hPa 0,0 mm 0,0 km/h (0 Bft) O-NO 292 0 min 0 W/m 3,6 C 5,1 C 0,0 km/h (0 Bft)
24/01/2012 02:40 4,9 C 90 % 1023,6 hPa 0,0 mm 0,0 km/h (0 Bft) O 270 0 min 0 W/m 3,4 C 4,9 C 0,0 km/h (0 Bft)
24/01/2012 02:50 4,6 C 90 % 1023,6 hPa 0,0 mm 0,0 km/h (0 Bft) O-SO 247 0 min 0 W/m 3,1 C 4,6 C 0,0 km/h (0 Bft)
24/01/2012 03:00 4,3 C 90 % 1023,5 hPa 0,0 mm 0,0 km/h (0 Bft) O-SO 247 0 min 0 W/m 2,8 C 4,3 C 0,0 km/h (0 Bft)
24/01/2012 03:10 4,3 C 91 % 1023,6 hPa 0,0 mm 0,0 km/h (0 Bft) S-SO 202 0 min 0 W/m 3,0 C 4,3 C 0,0 km/h (0 Bft)
24/01/2012 03:20 4,2 C 91 % 1023,4 hPa 0,0 mm 0,0 km/h (0 Bft) SO 225 0 min 0 W/m 2,9 C 4,2 C 0,0 km/h (0 Bft)
24/01/2012 03:30 4,2 C 92 % 1023,3 hPa 0,0 mm 0,0 km/h (0 Bft) N 360 0 min 0 W/m 3,0 C 4,2 C 0,0 km/h (0 Bft)
24/01/2012 03:40 4,0 C 92 % 1023,4 hPa 0,0 mm 0,0 km/h (0 Bft) SO 225 0 min 0 W/m 2,8 C 4,0 C 0,0 km/h (0 Bft)
24/01/2012 03:50 3,9 C 92 % 1023,5 hPa 0,0 mm 0,0 km/h (0 Bft) SO 225 0 min 0 W/m 2,7 C 3,9 C 0,0 km/h (0 Bft)
24/01/2012 04:00 3,8 C 92 % 1023,6 hPa 0,0 mm 0,0 km/h (0 Bft) SO 225 0 min 0 W/m 2,6 C 3,8 C 0,0 km/h (0 Bft)
24/01/2012 04:10 3,7 C 93 % 1023,5 hPa 0,0 mm 0,0 km/h (0 Bft) SO 225 0 min 0 W/m 2,7 C 3,7 C 0,0 km/h (0 Bft)
24/01/2012 04:20 3,6 C 93 % 1023,5 hPa 0,0 mm 0,0 km/h (0 Bft) S-SO 202 0 min 0 W/m 2,6 C 3,6 C 3,2 km/h (1 Bft)
24/01/2012 04:30 3,6 C 94 % 1023,4 hPa 0,0 mm 1,4 km/h (1 Bft) SO 225 0 min 0 W/m 2,7 C 3,6 C 1,4 km/h (1 Bft)
24/01/2012 04:40 3,6 C 94 % 1023,4 hPa 0,0 mm 0,0 km/h (0 Bft) SO 225 0 min 0 W/m 2,7 C 3,6 C 0,0 km/h (0 Bft)
24/01/2012 04:50 3,5 C 94 % 1023,4 hPa 0,0 mm 0,7 km/h (0 Bft) SO 225 0 min 0 W/m 2,6 C 3,5 C 0,7 km/h (0 Bft)
24/01/2012 05:00 3,4 C 94 % 1023,4 hPa 0,0 mm 2,5 km/h (1 Bft) SO 225 0 min 0 W/m 2,5 C 3,4 C 4,3 km/h (1 Bft)
24/01/2012 05:10 3,4 C 94 % 1023,5 hPa 0,0 mm 0,0 km/h (0 Bft) SO 225 0 min 0 W/m 2,5 C 3,4 C 0,0 km/h (0 Bft)
24/01/2012 05:20 3,3 C 93 % 1023,4 hPa 0,0 mm 0,0 km/h (0 Bft) SO 225 0 min 0 W/m 2,3 C 3,3 C 0,0 km/h (0 Bft)
24/01/2012 05:30 3,2 C 94 % 1023,5 hPa 0,0 mm 0,7 km/h (0 Bft) SO 225 0 min 0 W/m 2,3 C 3,2 C 2,9 km/h (1 Bft)
24/01/2012 05:40 3,1 C 94 % 1023,4 hPa 0,0 mm 0,0 km/h (0 Bft) SO 225 0 min 0 W/m 2,2 C 3,1 C 2,9 km/h (1 Bft)
24/01/2012 05:50 3,3 C 94 % 1023,4 hPa 0,0 mm 2,2 km/h (1 Bft) S-SO 202 0 min 0 W/m 2,4 C 3,3 C 4,3 km/h (1 Bft)
24/01/2012 06:00 3,4 C 94 % 1023,4 hPa 0,0 mm 2,2 km/h (1 Bft) SO 225 0 min 0 W/m 2,5 C 3,4 C 4,0 km/h (1 Bft)
24/01/2012 06:10 3,4 C 94 % 1023,3 hPa 0,0 mm 0,0 km/h (0 Bft) SO 225 0 min 0 W/m 2,5 C 3,4 C 2,9 km/h (1 Bft)
24/01/2012 06:20 3,6 C 95 % 1023,2 hPa 0,0 mm 1,8 km/h (1 Bft) SO 225 0 min 0 W/m 2,9 C 3,6 C 2,9 km/h (1 Bft)
24/01/2012 06:30 3,7 C 95 % 1023,3 hPa 0,0 mm 3,2 km/h (1 Bft) SO 225 0 min 0 W/m 3,0 C 3,7 C 4,3 km/h (1 Bft)
24/01/2012 06:40 3,8 C 95 % 1023,3 hPa 0,0 mm 2,2 km/h (1 Bft) O-SO 247 0 min 0 W/m 3,1 C 3,8 C 3,6 km/h (1 Bft)
24/01/2012 06:50 3,8 C 95 % 1023,5 hPa 0,0 mm 2,9 km/h (1 Bft) SO 225 0 min 0 W/m 3,1 C 3,8 C 4,3 km/h (1 Bft)
24/01/2012 07:00 3,8 C 95 % 1023,4 hPa 0,0 mm 2,9 km/h (1 Bft) SO 225 0 min 0 W/m 3,1 C 3,8 C 4,3 km/h (1 Bft)
24/01/2012 07:10 3,9 C 95 % 1023,5 hPa 0,0 mm 2,9 km/h (1 Bft) SO 225 0 min 0 W/m 3,2 C 3,9 C 4,0 km/h (1 Bft)
24/01/2012 07:20 3,9 C 95 % 1023,5 hPa 0,0 mm 3,6 km/h (1 Bft) S-SO 202 0 min 0 W/m 3,2 C 3,9 C 4,3 km/h (1 Bft)
24/01/2012 07:30 3,9 C 95 % 1023,5 hPa 0,0 mm 3,2 km/h (1 Bft) S-SO 202 0 min 0 W/m 3,2 C 3,9 C 4,0 km/h (1 Bft)
24/01/2012 07:40 4,0 C 95 % 1023,6 hPa 0,0 mm 3,2 km/h (1 Bft) SO 225 0 min 0 W/m 3,3 C 4,0 C 4,0 km/h (1 Bft)
24/01/2012 07:50 3,9 C 95 % 1023,6 hPa 0,0 mm 3,2 km/h (1 Bft) SO 225 0 min 0 W/m 3,2 C 3,9 C 4,3 km/h (1 Bft)
24/01/2012 08:00 3,8 C 95 % 1023,7 hPa 0,0 mm 2,2 km/h (1 Bft) SO 225 0 min 0 W/m 3,1 C 3,8 C 4,3 km/h (1 Bft)
24/01/2012 08:10 3,8 C 95 % 1023,8 hPa 0,0 mm 0,7 km/h (0 Bft) O-SO 247 0 min 0 W/m 3,1 C 3,8 C 4,3 km/h (1 Bft)
24/01/2012 08:20 3,9 C 95 % 1023,8 hPa 0,0 mm 1,1 km/h (1 Bft) SO 225 0 min 0 W/m 3,2 C 3,9 C 4,0 km/h (1 Bft)
24/01/2012 08:30 4,1 C 95 % 1023,9 hPa 0,0 mm 0,0 km/h (0 Bft) S-SO 202 0 min 0 W/m 3,4 C 4,1 C 3,2 km/h (1 Bft)
24/01/2012 08:40 4,1 C 95 % 1024,0 hPa 0,0 mm 2,9 km/h (1 Bft) SO 225 2 min 0 W/m 3,4 C 4,1 C 4,0 km/h (1 Bft)
24/01/2012 08:50 4,2 C 95 % 1023,9 hPa 0,0 mm 2,2 km/h (1 Bft) SO 225 2 min 0 W/m 3,5 C 4,2 C 4,0 km/h (1 Bft)
24/01/2012 09:00 4,2 C 95 % 1024,1 hPa 0,0 mm 1,4 km/h (1 Bft) O-SO 247 2 min 0 W/m 3,5 C 4,2 C 4,3 km/h (1 Bft)
24/01/2012 09:10 4,3 C 95 % 1024,1 hPa 0,0 mm 1,1 km/h (1 Bft) SO 225 2 min 0 W/m 3,6 C 4,3 C 1,1 km/h (1 Bft)
24/01/2012 09:20 4,4 C 95 % 1024,2 hPa 0,0 mm 1,8 km/h (1 Bft) SO 225 2 min 0 W/m 3,7 C 4,4 C 3,6 km/h (1 Bft)
24/01/2012 09:30 4,4 C 95 % 1024,0 hPa 0,0 mm 4,0 km/h (1 Bft) SO 225 2 min 0 W/m 3,7 C 4,4 C 6,8 km/h (2 Bft)
24/01/2012 09:40 4,6 C 95 % 1024,2 hPa 0,0 mm 1,4 km/h (1 Bft) S-SO 202 2 min 0 W/m 3,9 C 4,6 C 4,0 km/h (1 Bft)
24/01/2012 09:50 5,0 C 95 % 1024,3 hPa 0,0 mm 3,6 km/h (1 Bft) SO 225 2 min 0 W/m 4,3 C 5,0 C 6,8 km/h (2 Bft)
24/01/2012 10:00 5,1 C 94 % 1024,3 hPa 0,0 mm 1,8 km/h (1 Bft) SO 225 2 min 0 W/m 4,2 C 5,1 C 6,8 km/h (2 Bft)
24/01/2012 10:10 5,3 C 95 % 1024,5 hPa 0,0 mm 0,4 km/h (0 Bft) O-SO 247 2 min 0 W/m 4,6 C 5,3 C 3,2 km/h (1 Bft)
24/01/2012 10:20 5,5 C 94 % 1024,5 hPa 0,0 mm 0,4 km/h (0 Bft) SO 225 2 min 0 W/m 4,6 C 5,5 C 2,9 km/h (1 Bft)
24/01/2012 10:30 5,8 C 94 % 1024,6 hPa 0,1 mm 2,2 km/h (1 Bft) O-SO 247 2 min 0 W/m 4,9 C 5,8 C 2,2 km/h (1 Bft)
24/01/2012 10:40 5,9 C 94 % 1024,5 hPa 0,0 mm 0,0 km/h (0 Bft) O-SO 247 2 min 0 W/m 5,0 C 5,9 C 0,0 km/h (0 Bft)
24/01/2012 10:50 6,1 C 94 % 1024,4 hPa 0,1 mm 0,7 km/h (0 Bft) O 270 2 min 0 W/m 5,2 C 6,1 C 4,0 km/h (1 Bft)
24/01/2012 11:00 6,2 C 94 % 1024,6 hPa 0,0 mm 0,0 km/h (0 Bft) O 270 2 min 0 W/m 5,3 C 6,2 C 0,0 km/h (0 Bft)
24/01/2012 11:10 6,4 C 95 % 1024,6 hPa 0,0 mm 1,8 km/h (1 Bft) O 270 2 min 0 W/m 5,7 C 6,4 C 1,8 km/h (1 Bft)
24/01/2012 11:20 6,6 C 95 % 1024,6 hPa 0,0 mm 0,7 km/h (0 Bft) O-SO 247 2 min 0 W/m 5,9 C 6,6 C 4,0 km/h (1 Bft)
24/01/2012 11:30 6,8 C 95 % 1024,6 hPa 0,0 mm 1,1 km/h (1 Bft) O-SO 247 2 min 0 W/m 6,1 C 6,8 C 1,1 km/h (1 Bft)
24/01/2012 11:40 7,1 C 95 % 1024,6 hPa 0,0 mm 0,4 km/h (0 Bft) O 270 2 min 0 W/m 6,4 C 7,1 C 3,2 km/h (1 Bft)
24/01/2012 11:50 7,3 C 95 % 1024,6 hPa 0,0 mm 0,4 km/h (0 Bft) O 270 2 min 0 W/m 6,6 C 7,3 C 6,1 km/h (2 Bft)
24/01/2012 12:00 7,4 C 95 % 1024,5 hPa 0,0 mm 0,4 km/h (0 Bft) O-SO 247 2 min 0 W/m 6,7 C 7,4 C 2,9 km/h (1 Bft)
24/01/2012 12:10 7,4 C 95 % 1024,4 hPa 0,0 mm 4,0 km/h (1 Bft) SO 225 2 min 0 W/m 6,7 C 7,4 C 4,3 km/h (1 Bft)
24/01/2012 12:20 7,4 C 95 % 1024,2 hPa 0,0 mm 2,9 km/h (1 Bft) O 270 2 min 0 W/m 6,7 C 7,4 C 8,3 km/h (2 Bft)
24/01/2012 12:30 7,5 C 95 % 1024,2 hPa 0,0 mm 0,0 km/h (0 Bft) O-SO 247 2 min 0 W/m 6,8 C 7,5 C 0,0 km/h (0 Bft)
24/01/2012 12:40 7,6 C 95 % 1024,1 hPa 0,0 mm 5,0 km/h (1 Bft) O 270 2 min 0 W/m 6,9 C 7,0 C 8,3 km/h (2 Bft)
24/01/2012 12:50 7,6 C 95 % 1024,0 hPa 0,0 mm 0,0 km/h (0 Bft) O-SO 247 2 min 0 W/m 6,9 C 7,6 C 0,0 km/h (0 Bft)
24/01/2012 13:00 7,7 C 95 % 1023,8 hPa 0,0 mm 0,0 km/h (0 Bft) O-SO 247 2 min 0 W/m 7,0 C 7,7 C 0,0 km/h (0 Bft)
24/01/2012 13:10 7,8 C 94 % 1023,9 hPa 0,0 mm 1,8 km/h (1 Bft) O 270 2 min 0 W/m 6,9 C 7,8 C 1,8 km/h (1 Bft)
24/01/2012 13:20 7,9 C 94 % 1023,8 hPa 0,0 mm 0,4 km/h (0 Bft) O 270 2 min 0 W/m 7,0 C 7,9 C 0,4 km/h (0 Bft)
24/01/2012 13:30 8,0 C 94 % 1023,8 hPa 0,0 mm 4,0 km/h (1 Bft) O 270 2 min 0 W/m 7,1 C 8,0 C 8,3 km/h (2 Bft)
24/01/2012 13:40 8,1 C 94 % 1023,9 hPa 0,0 mm 0,0 km/h (0 Bft) O-NO 292 2 min 0 W/m 7,2 C 8,1 C 0,0 km/h (0 Bft)
24/01/2012 13:50 8,1 C 94 % 1023,8 hPa 0,0 mm 1,8 km/h (1 Bft) O 270 2 min 0 W/m 7,2 C 8,1 C 1,8 km/h (1 Bft)
24/01/2012 14:00 8,1 C 93 % 1023,6 hPa 0,0 mm 1,4 km/h (1 Bft) O 270 2 min 0 W/m 7,0 C 8,1 C 3,6 km/h (1 Bft)
24/01/2012 14:10 8,1 C 93 % 1023,5 hPa 0,0 mm 0,0 km/h (0 Bft) O 270 2 min 0 W/m 7,0 C 8,1 C 0,0 km/h (0 Bft)
24/01/2012 14:20 8,1 C 93 % 1023,4 hPa 0,0 mm 3,6 km/h (1 Bft) O-SO 247 2 min 0 W/m 7,0 C 8,1 C 10,8 km/h (2 Bft)
24/01/2012 14:30 8,2 C 93 % 1023,2 hPa 0,0 mm 3,6 km/h (1 Bft) O 270 2 min 0 W/m 7,1 C 8,2 C 3,6 km/h (1 Bft)
24/01/2012 14:40 8,5 C 94 % 1023,2 hPa 0,0 mm 1,4 km/h (1 Bft) O-NO 292 2 min 0 W/m 7,6 C 8,5 C 6,1 km/h (2 Bft)
24/01/2012 14:50 9,1 C 93 % 1023,3 hPa 0,0 mm 0,4 km/h (0 Bft) O-NO 292 2 min 0 W/m 8,0 C 9,1 C 2,9 km/h (1 Bft)
24/01/2012 15:00 9,2 C 91 % 1023,3 hPa 0,0 mm 3,6 km/h (1 Bft) O-SO 247 2 min 0 W/m 7,8 C 9,2 C 9,7 km/h (2 Bft)
24/01/2012 15:10 9,1 C 90 % 1023,2 hPa 0,0 mm 0,0 km/h (0 Bft) O-SO 247 2 min 0 W/m 7,5 C 9,1 C 0,0 km/h (0 Bft)
24/01/2012 15:20 9,0 C 89 % 1023,4 hPa 0,0 mm 0,4 km/h (0 Bft) O 270 2 min 0 W/m 7,3 C 9,0 C 0,4 km/h (0 Bft)
24/01/2012 15:30 8,9 C 90 % 1023,2 hPa 0,0 mm 0,0 km/h (0 Bft) O 270 2 min 0 W/m 7,4 C 8,9 C 3,2 km/h (1 Bft)
24/01/2012 15:40 8,9 C 90 % 1023,2 hPa 0,0 mm 0,0 km/h (0 Bft) O 270 2 min 0 W/m 7,4 C 8,9 C 0,0 km/h (0 Bft)
24/01/2012 15:50 8,9 C 89 % 1023,0 hPa 0,0 mm 1,4 km/h (1 Bft) O 270 2 min 0 W/m 7,2 C 8,9 C 4,0 km/h (1 Bft)
24/01/2012 16:00 8,9 C 89 % 1023,0 hPa 0,0 mm 0,0 km/h (0 Bft) O-SO 247 2 min 0 W/m 7,2 C 8,9 C 0,0 km/h (0 Bft)
24/01/2012 16:10 8,9 C 90 % 1023,0 hPa 0,0 mm 0,7 km/h (0 Bft) SO 225 2 min 0 W/m 7,4 C 8,9 C 4,3 km/h (1 Bft)
24/01/2012 16:20 8,9 C 90 % 1023,0 hPa 0,0 mm 0,0 km/h (0 Bft) O-SO 247 2 min 0 W/m 7,4 C 8,9 C 0,0 km/h (0 Bft)
24/01/2012 16:30 8,9 C 90 % 1022,9 hPa 0,0 mm 0,0 km/h (0 Bft) O 270 2 min 0 W/m 7,4 C 8,9 C 0,0 km/h (0 Bft)
24/01/2012 16:40 8,9 C 90 % 1023,0 hPa 0,0 mm 0,0 km/h (0 Bft) SO 225 2 min 0 W/m 7,4 C 8,9 C 3,2 km/h (1 Bft)
24/01/2012 16:50 8,9 C 89 % 1023,0 hPa 0,0 mm 0,0 km/h (0 Bft) O-SO 247 2 min 0 W/m 7,2 C 8,9 C 0,0 km/h (0 Bft)
24/01/2012 17:00 8,8 C 89 % 1022,8 hPa 0,0 mm 0,7 km/h (0 Bft) SO 225 2 min 0 W/m 7,1 C 8,8 C 0,7 km/h (0 Bft)
24/01/2012 17:10 8,8 C 89 % 1022,8 hPa 0,0 mm 1,4 km/h (1 Bft) O-SO 247 2 min 0 W/m 7,1 C 8,8 C 4,3 km/h (1 Bft)
24/01/2012 17:20 8,7 C 90 % 1022,7 hPa 0,0 mm 0,7 km/h (0 Bft) S-SO 202 2 min 0 W/m 7,2 C 8,7 C 0,7 km/h (0 Bft)
24/01/2012 17:30 8,6 C 90 % 1022,8 hPa 0,0 mm 0,0 km/h (0 Bft) S-SO 202 2 min 0 W/m 7,1 C 8,6 C 1,4 km/h (1 Bft)
24/01/2012 17:40 8,5 C 90 % 1022,9 hPa 0,0 mm 1,8 km/h (1 Bft) S-SO 202 0 min 0 W/m 7,0 C 8,5 C 1,8 km/h (1 Bft)
24/01/2012 17:50 8,4 C 91 % 1022,7 hPa 0,0 mm 2,5 km/h (1 Bft) S-SO 202 0 min 0 W/m 7,0 C 8,4 C 4,0 km/h (1 Bft)
24/01/2012 18:00 8,3 C 91 % 1022,7 hPa 0,0 mm 1,4 km/h (1 Bft) O-SO 247 0 min 0 W/m 6,9 C 8,3 C 4,0 km/h (1 Bft)
24/01/2012 18:10 8,3 C 91 % 1022,6 hPa 0,0 mm 3,6 km/h (1 Bft) SO 225 0 min 0 W/m 6,9 C 8,3 C 4,3 km/h (1 Bft)
24/01/2012 18:20 8,2 C 91 % 1022,6 hPa 0,0 mm 2,2 km/h (1 Bft) S-SO 202 0 min 0 W/m 6,8 C 8,2 C 4,3 km/h (1 Bft)
24/01/2012 18:30 8,2 C 92 % 1022,6 hPa 0,0 mm 2,9 km/h (1 Bft) SO 225 0 min 0 W/m 7,0 C 8,2 C 7,6 km/h (2 Bft)
_ Min-Heure 05:40 17:10 18:30 - 17:30 - - - - 05:40 05:40 16:50
Minimum _ 3,1 C 89 % 1022,6 hPa - 0,0 km/h (0 Bft) - - - - 2,2 C 3,1 C 0,0 km/h (0 Bft)
_ Max-Heure 15:00 13:00 11:50 10:50 12:40 - - 17:30 18:30 14:50 15:00 14:20
Maximum _ 9,2 C 95 % 1024,6 hPa 0,1 mm 5,0 km/h
O (1 Bft)
- - 2 min 0 W/m 8,0 C 9,2 C 10,8 km/h
O-SO (2 Bft)
Moyenne _ 6,0 C 93 % 1023,6 hPa #0,2 mm 1,2 km/h (1 Bft) SO - #1:48 h 0 W/m 4,9 C 6,0 C 2,6 km/h (1 Bft)
Saint Bonnet de Bellac- Haute Vienne - France